Showing default

VSP RF B1, 59137

Orbit data source: Space-Track

VSP RF B1, 59137 is a payload satellite owned by Aerospacelab (BE) in SSO that was launched on Mon, 04 Mar 2024 UTC via an FALCON 9 launch vehicle from the Air Force Western Test Range (AFWTR). Payload-class satellites include a variety of spacecraft equipped with specific instruments for various scientific and technological missions. These include communications satellites like Starlink; space stations such as the ISS; scientific satellites like the Hubble; Earth observation satellites from companies like Planet Labs, Umbra, and HawkEye 360; GPS; miniature CubeSats for education and research; and military/defense satellites.

Loading next visibility...
Identifier
59137, 2024-043AR
Orbit
SSO
Country
Flag of BEBE / BEL
Related business
Manufacturer
Aerospacelab
Mission
Operational Commercial Sigint
Bus & Motor
AEROSP, Unknown motor
Mass
~200 kg wet, ~200 kg dry
Launch date (UTC)
2024-03-04 (2 years ago)
Launch vehicle
FALCON 9
Launch site
Air Force Western Test Range (AFWTR)
Object type
Payload
Rocket body
Debris
Shape & HBR
Box + 2 Pan, 1.0 m
Radar Cross Section
0.963 m², Large (>1 m²)

Expand to show TLE details & history
Last TLE update: 2 days ago

TLE from 2 days ago
0 VSP RF B1
1 59137U 24043AR  26171.16637594 -.00002459  00000-0 -90802-4 0  9991
2 59137  97.5622 308.1628 0008237 219.6134 140.4503 15.26698529127473
Epoch: 2026-06-20T03:59Z
TLE epoch observation values (Epoch: 2026-06-20T03:59:34.881Z)
Latitude
-0.00004°
Longitude
-20.11743°
Altitude
493.147 km
Speed
7.616 km/s
True Right ascension
20h 32m 39s
True Declination
0° 00' 00"
Sunlit
Object was in full shadow at epoch
Visualization orbit readout
Latitude
Unknown
Longitude
Unknown
Altitude
Unknown
Speed
Unknown
Apparent Right ascension
Unknown
Apparent Declination
Unknown
Sunlit
N/A
Visualization observer readout
Local Sidereal Time
21:38:41
Azimuth
Unknown
Elevation
Unknown
Doppler factor
Unknown
Orbital elements
Apogee altitude
488.305 km
Perigee altitude
477.002 km
Semi-major axis
6,860.79 km
Eccentricity
0.00082
Inclination
97.5622°
RAAN
308.1628°
Arg. of periapsis
219.6134°
True anomaly
140.51035°
Mean anomaly
140.4503°
Eccentric anomaly
140.48033°
Mean motion
3.81928 °/min
Orbital period
94.26 mins
BSTAR
-0.000090802
Loading maneuver chart data...
Computing Atmospheric mass density...
Loading historical data...
Loading historical data...
Loading historical data...
Loading historical data...
Loading historical data...
Loading historical data...
Loading historical data...

Documentation

Showing up to 5 results
|